KF7MJQ-10 Weather Reports


Display with metric or nautical units.
time (UTC)temp
F
wind
direction
speed
MPH
gust
MPH
rain 1hr
in
rain 24hr
in
rain mn
in
humidity
%
barometer
mb
20260901204523 63 97 1.0 5.0 0.00 0.00 0.00 1 1010.2
20260901204021 64 207 1.0 5.0 0.00 0.00 0.00 1 1010.3
20260901203520 63 217 0.0 3.0 0.00 0.00 0.00 1 1010.3
20260901203036 63 207 1.0 6.0 0.00 0.00 0.00 1 1010.3
20260901202516 63 226 1.0 6.0 0.00 0.00 0.00 1 1010.3
20260901202017 64 229 1.0 8.0 0.00 0.00 0.00 1 1010.3
20260901201617 64 257 2.0 8.0 0.00 0.00 0.00 1 1010.3
20260901201100 63 131 0.0 6.0 0.00 0.00 0.00 1 1010.2
20260901200559 64 20 0.0 6.0 0.00 0.00 0.00 1 1010.3
20260901195600 64 225 0.0 5.0 0.00 0.00 0.00 1 1010.3
20260901195055 64 194 0.0 5.0 0.00 0.00 0.00 1 1010.4
20260901194603 64 239 0.0 6.0 0.00 0.00 0.00 1 1010.4
20260901194037 63 111 0.0 7.0 0.00 0.00 0.00 1 1010.4
20260901193534 64 238 1.0 6.0 0.00 0.00 0.00 1 1010.5
20260901193034 63 222 0.0 4.0 0.00 0.00 0.00 1 1010.4
20260901192537 63 240 1.0 4.0 0.00 0.00 0.00 1 1010.4
20260901192034 63 242 0.0 4.0 0.00 0.00 0.00 1 1010.4
20260901191534 63 217 0.0 4.0 0.00 0.00 0.00 1 1010.4
20260901191016 63 228 0.0 5.0 0.00 0.00 0.00 1 1010.5
20260901190514 63 232 1.0 5.0 0.00 0.00 0.00 1 1010.5
20260901190029 64 115 1.0 5.0 0.00 0.00 0.00 1 1010.4
20260901185513 63 127 0.0 4.0 0.00 0.00 0.00 1 1010.4
20260901185012 63 228 1.0 4.0 0.00 0.00 0.00 1 1010.4
20260901184509 63 218 1.0 3.0 0.00 0.00 0.00 1 1010.5
20260901184054 63 228 0.0 5.0 0.00 0.00 0.00 1 1010.4
20260901183552 62 205 0.0 5.0 0.00 0.00 0.00 1 1010.5
20260901183051 61 161 0.0 2.0 0.00 0.00 0.00 1 1010.4
20260901182549 61 214 0.0 6.0 0.00 0.00 0.00 1 1010.5
20260901182048 61 214 0.0 5.0 0.00 0.00 0.00 1 1010.5
20260901181547 61 211 1.0 5.0 0.00 0.00 0.00 1 1010.5
20260901181046 61 68 1.0 5.0 0.00 0.00 0.00 1 1010.4
20260901180544 61 232 0.0 2.0 0.00 0.00 0.00 1 1010.4
20260901180042 61 224 0.0 2.0 0.00 0.00 0.00 1 1010.4
20260901175540 61 98 0.0 2.0 0.00 0.00 0.00 1 1010.4
20260901175039 61 226 0.0 1.0 0.00 0.00 0.00 1 1010.3
20260901174540 61 229 0.0 1.0 0.00 0.00 0.00 1 1010.3
20260901174039 60 228 0.0 5.0 0.00 0.00 0.00 1 1010.3
20260901173539 60 212 0.0 5.0 0.00 0.00 0.00 1 1010.3
20260901173037 60 211 0.0 2.0 0.00 0.00 0.00 1 1010.3
20260901172536 60 203 0.0 2.0 0.00 0.00 0.00 1 1010.3
20260901172034 60 225 0.0 1.0 0.00 0.00 0.00 1 1010.2
20260901171533 60 205 0.0 3.0 0.00 0.00 0.00 1 1010.3
20260901171030 60 221 0.0 3.0 0.00 0.00 0.00 1 1010.3
20260901170529 60 224 0.0 5.0 0.00 0.00 0.00 1 1010.2
20260901170027 60 250 0.0 5.0 0.00 0.00 0.00 1 1010.2
20260901165525 60 229 0.0 0.0 0.00 0.00 0.00 1 1010.2
20260901165027 60 236 0.0 0.0 0.00 0.00 0.00 1 1010.1
20260901164523 60 233 0.0 0.0 0.00 0.00 0.00 1 1010.1
20260901164006 60 221 0.0 0.0 0.00 0.00 0.00 1 1010.1
20260901163503 60 229 0.0 0.0 0.00 0.00 0.00 1 1010.1
20260901163001 60 220 0.0 0.0 0.00 0.00 0.00 1 1010.1
20260901162600 60 238 0.0 0.0 0.00 0.00 0.00 1 1010.1
20260901162102 60 193 0.0 0.0 0.00 0.00 0.00 1 1010.1
20260901161610 60 224 0.0 0.0 0.00 0.00 0.00 1 1010.1
20260901161038 60 224 0.0 0.0 0.00 0.00 0.00 1 1010.1
20260901160539 61 220 0.0 0.0 0.00 0.00 0.00 1 1010.1
20260901160035 61 246 0.0 0.0 0.00 0.00 0.00 1 1010.1
20260901155534 61 228 0.0 0.0 0.00 0.00 0.00 1 1010.1
20260901155032 60 228 0.0 0.0 0.00 0.00 0.00 1 1010.1
20260901154532 60 228 0.0 0.0 0.00 0.00 0.00 1 1010.1
20260901154017 60 228 0.0 0.0 0.00 0.00 0.00 1 1010.1
20260901153516 60 229 0.0 0.0 0.00 0.00 0.00 1 1010.1
20260901153027 60 229 0.0 0.0 0.00 0.00 0.00 1 1010.1
20260901152513 60 229 0.0 0.0 0.00 0.00 0.00 1 1010.1
20260901152012 60 229 0.0 0.0 0.00 0.00 0.00 1010.1
20260901151515 0 0.0 0.0 0.00 0.00 0.00 1010.0
20260901151009 0 0.0 0.0 0.00 0.00 0.00 1009.9
20260901150507 0 0.0 0.0 0.00 0.00 0.00 1009.9
20260901150018 0 0.0 0.0 0.00 0.00 0.00 1009.8
20260901145505 0 0.0 0.0 0.00 0.00 0.00 1009.9
20260901145002 0 0.0 0.0 0.00 0.00 0.00 1009.9
20260901144501 0 0.0 0.0 0.00 0.00 0.00 1009.8
20260901144101 0 0.0 0.0 0.00 0.00 0.00 1009.8
20260901143559 0 0.0 0.0 0.00 0.00 0.00 1009.8
20260901143123 0 0.0 0.0 0.00 0.00 0.00 1009.7
20260901142555 0 0.0 0.0 0.00 0.00 0.00 1009.7
20260901142054 0 0.0 0.0 0.00 0.00 0.00 1009.7
20260901141607 0 0.0 0.0 0.00 0.00 0.00 1009.6
20260901141052 0 0.0 0.0 0.00 0.00 0.00 1009.6
20260901140550 0 0.0 0.0 0.00 0.00 0.00 1009.6
20260901140048 0 0.0 0.0 0.00 0.00 0.00 1009.6
20260901135547 0 0.0 0.0 0.00 0.00 0.00 1009.6
20260901135045 0 0.0 0.0 0.00 0.00 0.00 1009.5
20260901134545 0 0.0 0.0 0.00 0.00 0.00 1009.5
20260901134043 0 0.0 0.0 0.00 0.00 0.00 1009.5
20260901133524 0 0.0 0.0 0.00 0.00 0.00 1009.5
20260901133031 0 0.0 0.0 0.00 0.00 0.00 1009.5
20260901132522 0 0.0 0.0 0.00 0.00 0.00 1009.5
20260901132020 0 0.0 0.0 0.00 0.00 0.00 1009.5
20260901131521 0 0.0 0.0 0.00 0.00 0.00 1009.5
20260901131017 0 0.0 0.0 0.00 0.00 0.00 1009.4
20260901130600 0 0.0 0.0 0.00 0.00 0.00 1009.5
20260901130057 0 0.0 0.0 0.00 0.00 0.00 1009.6
20260901125556 0 0.0 0.0 0.00 0.00 0.00 1009.5
20260901125058 0 0.0 0.0 0.00 0.00 0.00 1009.5
20260901124553 0 0.0 0.0 0.00 0.00 0.00 1009.5
20260901124051 0 0.0 0.0 0.00 0.00 0.00 1009.5
20260901123532 0 0.0 0.0 0.00 0.00 0.00 1009.5
20260901123031 0 0.0 0.0 0.00 0.00 0.00 1009.5
20260901122532 0 0.0 0.0 0.00 0.00 0.00 1009.5
20260901122028 0 0.0 0.0 0.00 0.00 0.00 1009.5
20260901121526 0 0.0 0.0 0.00 0.00 0.00 1009.6
20260901121025 0 0.0 0.0 0.00 0.00 0.00 1009.6
20260901120507 0 0.0 0.0 0.00 0.00 0.00 1009.6
20260901120004 0 0.0 0.0 0.00 0.00 0.00 1009.6
20260901115504 0 0.0 0.0 0.00 0.00 0.00 1009.5
20260901115001 0 0.0 0.0 0.00 0.00 0.00 1009.6
20260901114602 0 0.0 0.0 0.00 0.00 0.00 1009.5
20260901114059 0 0.0 0.0 0.00 0.00 0.00 1009.4
20260901113540 0 0.0 0.0 0.00 0.00 0.00 1009.4
20260901113051 0 0.0 0.0 0.00 0.00 0.00 1009.5
20260901112537 0 0.0 0.0 0.00 0.00 0.00 1009.6
20260901112035 0 0.0 0.0 0.00 0.00 0.00 1009.5
20260901111535 0 0.0 0.0 0.00 0.00 0.00 1009.5
20260901111033 0 0.0 0.0 0.00 0.00 0.00 1009.6
20260901110514 0 0.0 0.0 0.00 0.00 0.00 1009.4
20260901110013 0 0.0 0.0 0.00 0.00 0.00 1009.4
20260901105513 0 0.0 0.0 0.00 0.00 0.00 1009.4
20260901105010 0 0.0 0.0 0.00 0.00 0.00 1009.3
20260901104520 0 0.0 0.0 0.00 0.00 0.00 1009.3
20260901104010 0 0.0 0.0 0.00 0.00 0.00 1009.3
20260901103548 0 0.0 0.0 0.00 0.00 0.00 1009.3
20260901103047 0 0.0 0.0 0.00 0.00 0.00 1009.4
20260901102547 0 0.0 0.0 0.00 0.00 0.00 1009.4
20260901102045 0 0.0 0.0 0.00 0.00 0.00 1009.3
20260901101551 0 0.0 0.0 0.00 0.00 0.00 1009.3
20260901101046 0 0.0 0.0 0.00 0.00 0.00 1009.4
20260901100523 0 0.0 0.0 0.00 0.00 0.00 1009.3
20260901100023 0 0.0 0.0 0.00 0.00 0.00 1009.3
20260901095519 0 0.0 0.0 0.00 0.00 0.00 1009.2
20260901095018 0 0.0 0.0 0.00 0.00 0.00 1009.2
20260901094517 0 0.0 0.0 0.00 0.00 0.00 1009.2
20260901094015 0 0.0 0.0 0.00 0.00 0.00 1009.2
20260901093556 0 0.0 0.0 0.00 0.00 0.00 1009.2
20260901093056 0 0.0 0.0 0.00 0.00 0.00 1009.3
20260901092554 0 0.0 0.0 0.00 0.00 0.00 1009.3
20260901092052 0 0.0 0.0 0.00 0.00 0.00 1009.3
20260901091600 0 0.0 0.0 0.00 0.00 0.00 1009.2
20260901091048 0 0.0 0.0 0.00 0.00 0.00 1009.1
20260901090530 0 0.0 0.0 0.00 0.00 0.00 1009.1
20260901090031 0 0.0 0.0 0.00 0.00 0.00 1009.0
20260901085527 0 0.0 0.0 0.00 0.00 0.00 1008.9
20260901085025 0 0.0 0.0 0.00 0.00 0.00 1009.0
20260901084525 0 0.0 0.0 0.00 0.00 0.00 1009.1
20260901084024 0 0.0 0.0 0.00 0.00 0.00 1009.1
20260901083503 0 0.0 0.0 0.00 0.00 0.00 1009.1
20260901083002 0 0.0 0.0 0.00 0.00 0.00 1009.1
20260901082601 0 0.0 0.0 0.00 0.00 0.00 1009.0
20260901082059 0 0.0 0.0 0.00 0.00 0.00 1009.1
20260901081558 0 0.0 0.0 0.00 0.00 0.00 1009.0
20260901081057 0 0.0 0.0 0.00 0.00 0.00 1009.0
20260901080556 0 0.0 0.0 0.00 0.00 0.00 1009.0
20260901080037 0 0.0 0.0 0.00 0.00 0.00 1008.9
20260901075535 0 0.0 0.0 0.00 0.00 0.00 1008.9
20260901075034 0 0.0 0.0 0.00 0.00 0.00 1008.9
20260901074542 0 0.0 0.0 0.00 0.00 0.00 1008.9
20260901074034 0 0.0 0.0 0.00 0.00 0.00 1008.8
20260901073530 0 0.0 0.0 0.00 0.00 0.00 1008.6
20260901073010 0 0.0 0.0 0.00 0.00 0.00 1008.6
20260901072509 0 0.0 0.0 0.00 0.00 0.00 1008.7
20260901072010 0 0.0 0.0 0.00 0.00 0.00 1008.6
20260901071507 0 0.0 0.0 0.00 0.00 0.00 1008.6
20260901071008 0 0.0 0.0 0.00 0.00 0.00 1008.7
20260901070508 0 0.0 0.0 0.00 0.00 0.00 1008.6
20260901070046 0 0.0 0.0 0.00 0.00 0.00 1008.6
20260901065545 0 0.0 0.0 0.00 0.00 0.00 1008.5
20260901065046 0 0.0 0.0 0.00 0.00 0.00 1008.5
20260901064543 0 0.0 0.0 0.00 0.00 0.00 1008.6
20260901064041 0 0.0 0.0 0.00 0.00 0.00 1008.5
20260901063539 0 0.0 0.0 0.00 0.00 0.00 1008.5
20260901063020 0 0.0 0.0 0.00 0.00 0.00 1008.4
20260901062518 0 0.0 0.0 0.00 0.00 0.00 1008.5
20260901062020 0 0.0 0.0 0.00 0.00 0.00 1008.5
20260901061516 58 20 0.0 0.0 0.00 0.00 0.00 1 1008.6
20260901061015 58 20 0.0 0.0 0.00 0.00 0.00 1 1008.6
20260901060514 59 20 0.0 0.0 0.00 0.00 0.00 1 1008.6
20260901060105 59 20 0.0 0.0 0.00 0.00 0.00 1 1008.6
20260901055600 59 74 0.0 1.0 0.00 0.00 0.00 1 1008.7
20260901055058 59 103 0.0 1.0 0.00 0.00 0.00 1 1008.6
20260901054556 59 86 0.0 1.0 0.00 0.00 0.00 1 1008.6
20260901054054 59 84 0.0 1.0 0.00 0.00 0.00 1 1008.6
20260901053558 59 356 0.0 0.0 0.00 0.00 0.00 1 1008.6
20260901053057 59 269 0.0 0.0 0.00 0.00 0.00 1 1008.5
20260901052550 59 127 0.0 0.0 0.00 0.00 0.00 1 1008.6
20260901052048 59 120 0.0 0.0 0.00 0.00 0.00 1 1008.5
20260901051547 59 241 0.0 0.0 0.00 0.00 0.00 1 1008.5
20260901051046 59 233 0.0 0.0 0.00 0.00 0.00 1 1008.5
20260901050545 59 219 0.0 0.0 0.00 0.00 0.00 1 1008.5
20260901050043 59 219 0.0 0.0 0.00 0.00 0.00 1 1008.4
20260901045544 59 152 0.0 0.0 0.00 0.00 0.00 1 1008.5
20260901045043 59 223 0.0 0.0 0.00 0.00 0.00 1 1008.4
20260901044540 59 291 0.0 0.0 0.00 0.00 0.00 1 1008.4
20260901044040 59 290 0.0 0.0 0.00 0.00 0.00 1 1008.4
20260901043539 59 303 0.0 1.0 0.00 0.00 0.00 1 1008.3
20260901043051 59 290 0.0 1.0 0.00 0.00 0.00 1 1008.3
20260901042537 59 188 0.0 1.0 0.00 0.00 0.00 1 1008.3
20260901042035 59 264 0.0 2.0 0.00 0.00 0.00 1 1008.3
20260901041535 59 173 0.0 2.0 0.00 0.00 0.00 1 1008.3
20260901041035 59 265 0.0 1.0 0.00 0.00 0.00 1 1008.2
20260901040534 59 302 0.0 2.0 0.00 0.00 0.00 1 1008.2
20260901040016 59 348 0.0 4.0 0.00 0.00 0.00 1 1008.2
20260901035514 59 235 0.0 3.0 0.00 0.00 0.00 1 1008.2
20260901035015 59 68 0.0 3.0 0.00 0.00 0.00 1 1008.2
20260901034511 59 255 0.0 1.0 0.00 0.00 0.00 1 1008.1
20260901034012 59 293 0.0 4.0 0.00 0.00 0.00 1 1008.1
20260901033509 59 289 0.0 4.0 0.00 0.00 0.00 1 1008.0
20260901033107 59 238 0.0 3.0 0.00 0.00 0.00 1 1008.0
20260901032550 60 56 0.0 3.0 0.00 0.00 0.00 1 1008.0
20260901032047 60 307 0.0 2.0 0.00 0.00 0.00 1 1008.0
20260901031604 60 305 0.0 4.0 0.00 0.00 0.00 1 1007.9
20260901031044 60 263 0.0 5.0 0.00 0.00 0.00 1 1007.9
20260901030547 60 159 0.0 5.0 0.00 0.00 0.00 1 1008.0
20260901030024 60 323 0.0 3.0 0.00 0.00 0.00 1 1008.0
20260901025526 60 224 0.0 4.0 0.00 0.00 0.00 1 1008.1
20260901025023 60 323 0.0 4.0 0.00 0.00 0.00 1 1008.0
20260901024519 60 295 0.0 1.0 0.00 0.00 0.00 1 1008.1
20260901024019 60 263 0.0 1.0 0.00 0.00 0.00 1 1008.1
20260901023517 60 294 0.0 1.0 0.00 0.00 0.00 1 1008.1
20260901023116 60 236 0.0 1.0 0.00 0.00 0.00 1 1008.1
20260901022556 60 191 0.0 1.0 0.00 0.00 0.00 1 1008.1
20260901022056 60 352 0.0 1.0 0.00 0.00 0.00 1 1008.1
20260901021556 61 319 0.0 1.0 0.00 0.00 0.00 1 1008.2
20260901021052 61 287 0.0 2.0 0.00 0.00 0.00 1 1008.2
20260901020551 61 304 0.0 1.0 0.00 0.00 0.00 1 1008.2
20260901020049 61 246 0.0 3.0 0.00 0.00 0.00 1 1008.2
20260901015529 61 38 0.0 3.0 0.00 0.00 0.00 1 1008.3
20260901015032 61 283 0.0 2.0 0.00 0.00 0.00 1 1008.3
20260901014527 61 333 0.0 3.0 0.00 0.00 0.00 1 1008.3
20260901014025 61 278 0.0 3.0 0.00 0.00 0.00 1 1008.4
20260901013524 61 333 0.0 2.0 0.00 0.00 0.00 1 1008.4
20260901013030 61 310 0.0 2.0 0.00 0.00 0.00 1 1008.5
20260901012503 61 277 0.0 2.0 0.00 0.00 0.00 1 1008.5
20260901012002 61 304 0.0 2.0 0.00 0.00 0.00 1 1008.5
20260901011502 61 65 0.0 2.0 0.00 0.00 0.00 1 1008.6
20260901011100 61 348 0.0 2.0 0.00 0.00 0.00 1 1008.6
20260901010558 62 242 0.0 4.0 0.00 0.00 0.00 1 1008.7
20260901010100 61 58 0.0 6.0 0.00 0.00 0.00 1 1008.6
20260901005539 61 22 1.0 7.0 0.00 0.00 0.00 1 1008.6
20260901005041 61 273 0.0 7.0 0.00 0.00 0.00 1 1008.6
20260901004536 62 82 0.0 4.0 0.00 0.00 0.00 1 1008.6
20260901004035 61 285 0.0 4.0 0.00 0.00 0.00 1 1008.5
20260901003533 62 107 1.0 4.0 0.00 0.00 0.00 1 1008.5
20260901003031 62 295 0.0 6.0 0.00 0.00 0.00 1 1008.5
20260901002513 62 58 0.0 6.0 0.00 0.00 0.00 1 1008.6
20260901002012 62 60 0.0 5.0 0.00 0.00 0.00 1 1008.7
20260901001512 62 321 0.0 4.0 0.00 0.00 0.00 1 1008.8
20260901001008 62 321 0.0 4.0 0.00 0.00 0.00 1 1008.8
20260901000506 62 290 0.0 4.0 0.00 0.00 0.00 1 1009.0
20260901000008 62 309 0.0 4.0 0.00 0.00 0.00 1 1008.9
20260831235546 62 291 0.0 4.0 0.00 0.00 0.00 1 1009.0
20260831235045 62 291 0.0 4.0 0.00 0.00 0.00 1 1008.9
20260831234543 62 330 0.0 6.0 0.00 0.00 0.00 1 1009.0
20260831234041 62 34 1.0 6.0 0.00 0.00 0.00 1 1009.1
20260831233540 62 56 1.0 6.0 0.00 0.00 0.00 1 1009.1
20260831233040 62 77 0.0 5.0 0.00 0.00 0.00 1 1009.0
20260831232520 62 70 0.0 6.0 0.00 0.00 0.00 1 1009.0
20260831232018 62 308 1.0 6.0 0.00 0.00 0.00 1 1009.1
20260831231517 62 293 0.0 3.0 0.00 0.00 0.00 1 1009.1
20260831231018 62 308 0.0 5.0 0.00 0.00 0.00 1 1009.1
20260831230515 62 289 0.0 5.0 0.00 0.00 0.00 1 1009.1
20260831230013 62 330 0.0 2.0 0.00 0.00 0.00 1 1009.3
20260831225554 62 285 0.0 2.0 0.00 0.00 0.00 1 1009.3
20260831225054 62 307 0.0 1.0 0.00 0.00 0.00 1 1009.3
20260831224555 62 356 0.0 2.0 0.00 0.00 0.00 1 1009.2
20260831224050 62 88 0.0 2.0 0.00 0.00 0.00 1 1009.2
20260831223549 62 333 0.0 3.0 0.00 0.00 0.00 1 1009.4
20260831223047 62 60 0.0 3.0 0.00 0.00 0.00 1 1009.5
20260831222528 62 223 0.0 2.0 0.00 0.00 0.00 1 1009.4
20260831222033 63 239 0.0 6.0 0.00 0.00 0.00 1 1009.4
20260831221524 63 288 0.0 6.0 0.00 0.00 0.00 1 1009.4
20260831221022 63 56 0.0 3.0 0.00 0.00 0.00 1 1009.6
20260831220521 63 226 0.0 5.0 0.00 0.00 0.00 1 1009.6
20260831220020 63 299 0.0 5.0 0.00 0.00 0.00 1 1009.8
20260831215503 63 30 0.0 4.0 0.00 0.00 0.00 1 1009.8
20260831215100 63 78 0.0 4.0 0.00 0.00 0.00 1 1009.8
20260831214600 65 297 0.0 4.0 0.00 0.00 0.00 1 1009.9
20260831214056 65 302 1.0 4.0 0.00 0.00 0.00 1 1010.0
20260831213555 66 58 1.0 4.0 0.00 0.00 0.00 1 1010.0
20260831213056 66 283 0.0 4.0 0.00 0.00 0.00 1 1010.1
20260831212535 67 151 0.0 4.0 0.00 0.00 0.00 1 1010.1
20260831212033 67 44 0.0 5.0 0.00 0.00 0.00 1 1010.1
20260831211534 68 281 1.0 5.0 0.00 0.00 0.00 1 1010.2
20260831211030 68 56 0.0 3.0 0.00 0.00 0.00 1 1010.2
20260831210529 69 257 1.0 3.0 0.00 0.00 0.00 1 1010.2
20260831210028 69 226 0.0 5.0 0.00 0.00 0.00 1 1010.3
20260831205509 69 202 1.0 5.0 0.00 0.00 0.00 1 1010.3
20260831205008 69 291 0.0 3.0 0.00 0.00 0.00 1 1010.3